H1 CPF 1 NER 2021 3 26 9 5851 glonass132 H2 1401201 9132 39620 2021 3 26 0 0 0 2021 3 29 23 45 0 900 1 1 0 0 0 H9 10 0 59299 0.00000 0 -8896010.211 -11905866.801 20728724.530 10 0 59299 900.00000 0 -6339168.758 -11249500.480 22001747.839 10 0 59299 1800.00000 0 -3611723.415 -10770156.355 22847640.204 10 0 59299 2700.00000 0 -779940.540 -10493283.397 23250238.655 10 0 59299 3600.00000 0 2085845.938 -10432275.348 23201981.276 10 0 59299 4500.00000 0 4913915.760 -10587914.839 22704033.736 10 0 59299 5400.00000 0 7633896.362 -10948363.602 21766249.250 10 0 59299 6300.00000 0 10179437.759 -11489697.676 20406963.993 10 0 59299 7200.00000 0 12490719.262 -12176963.886 18652632.812 10 0 59299 8100.00000 0 14516686.255 -12965712.512 16537312.745 10 0 59299 9000.00000 0 16216926.599 -13803941.684 14102004.246 10 0 59299 9900.00000 0 17563110.871 -14634372.197 11393862.513 10 0 59299 10800.00000 0 18539938.643 -15396957.996 8465293.404 10 0 59299 11700.00000 0 19145553.078 -16031527.845 5372950.447 10 0 59299 12600.00000 0 19391407.766 -16480448.286 2176651.313 10 0 59299 13500.00000 0 19301592.191 -16691196.927 -1061766.432 10 0 59299 14400.00000 0 18911644.276 -16618738.537 -4279629.284 10 0 59299 15300.00000 0 18266899.664 -16227604.423 -7414629.453 10 0 59299 16200.00000 0 17420446.411 -15493587.352 -10406021.861 10 0 59299 17100.00000 0 16430770.289 -14404980.066 -13195794.038 10 0 59299 18000.00000 0 15359188.775 -12963304.082 -15729786.699 10 0 59299 18900.00000 0 14267180.732 -11183496.254 -17958743.676 10 0 59299 19800.00000 0 13213723.385 -9093542.897 -19839271.017 10 0 59299 20700.00000 0 12252748.190 -6733574.253 -21334686.475 10 0 59299 21600.00000 0 11430822.539 -4154454.348 -22415742.690 10 0 59299 22500.00000 0 10785155.107 -1415922.403 -23061209.405 10 0 59299 23400.00000 0 10342009.529 1415639.056 -23258302.593 10 0 59299 24300.00000 0 10115594.184 4269718.456 -23002951.095 10 0 59299 25200.00000 0 10107476.170 7074368.605 -22299894.319 10 0 59299 26100.00000 0 10306545.611 9758967.944 -21162607.698 10 0 59299 27000.00000 0 10689533.217 12256934.898 -19613055.912 10 0 59299 27900.00000 0 11222060.501 14508282.000 -17681277.314 10 0 59299 28800.00000 0 11860179.168 16461902.422 -15404806.540 10 0 59299 29700.00000 0 12552334.994 18077492.555 -12827945.764 10 0 59299 30600.00000 0 13241672.931 19327029.315 -10000898.413 10 0 59299 31500.00000 0 13868585.055 20195739.470 -6978782.517 10 0 59299 32400.00000 0 14373392.144 20682520.092 -3820543.626 10 0 59299 33300.00000 0 14699043.520 20799792.703 -587789.668 10 0 59299 34200.00000 0 14793718.843 20572798.109 2656427.783 10 0 59299 35100.00000 0 14613219.693 20038363.187 5848860.294 10 0 59299 36000.00000 0 14123047.950 19243193.605 8927311.194 10 0 59299 36900.00000 0 13300081.731 18241766.805 11831859.881 10 0 59299 37800.00000 0 12133777.254 17093916.587 14506036.575 10 0 59299 38700.00000 0 10626845.608 15862213.363 16897923.759 10 0 59299 39600.00000 0 8795376.204 14609252.332 18961162.443 10 0 59299 40500.00000 0 6668402.297 13394964.990 20655844.017 10 0 59299 41400.00000 0 4286927.569 12274067.531 21949271.255 10 0 59299 42300.00000 0 1702455.420 11293753.058 22816574.965 10 0 59299 43200.00000 0 -1024917.046 10491723.447 23241176.090 10 0 59299 44100.00000 0 -3828760.647 9894641.741 23215086.113 10 0 59299 45000.00000 0 -6638837.360 9517067.930 22739041.798 10 0 59299 45900.00000 0 -9383781.114 9360920.453 21822473.300 10 0 59299 46800.00000 0 -11993826.071 9415483.866 20483307.577 10 0 59299 47700.00000 0 -14403470.808 9657960.484 18747611.824 10 0 59299 48600.00000 0 -16553969.850 10054541.498 16649084.283 10 0 59299 49500.00000 0 -18395551.339 10561951.791 14228402.226 10 0 59299 50400.00000 0 -19889270.744 11129403.369 11532439.370 10 0 59299 51300.00000 0 -21008425.591 11700875.627 8613367.115 10 0 59299 52200.00000 0 -21739473.928 12217627.213 5527655.977 10 0 59299 53100.00000 0 -22082419.542 12620834.804 2334995.532 10 0 59299 54000.00000 0 -22050648.685 12854248.681 -902847.399 10 0 59299 54900.00000 0 -21670225.456 12866754.154 -4123211.358 10 0 59299 55800.00000 0 -20978675.120 12614731.413 -7263741.653 10 0 59299 56700.00000 0 -20023305.951 12064114.547 -10263588.181 10 0 59299 57600.00000 0 -18859139.235 11192062.712 -13064577.248 10 0 59299 58500.00000 0 -17546533.268 9988172.010 -15612335.081 10 0 59299 59400.00000 0 -16148600.114 8455175.571 -17857341.708 10 0 59299 60300.00000 0 -14728522.638 6609100.263 -19755894.906 10 0 59299 61200.00000 0 -13346883.744 4478870.901 -21270965.429 10 0 59299 62100.00000 0 -12059119.514 2105375.726 -22372926.652 10 0 59299 63000.00000 0 -10913203.093 -459970.741 -23040143.956 10 0 59299 63900.00000 0 -9947656.877 -3157110.093 -23259411.534 10 0 59299 64800.00000 0 -9189977.121 -5919591.644 -23026227.139 10 0 59299 65700.00000 0 -8655538.092 -8677101.301 -22344898.151 10 0 59299 66600.00000 0 -8347022.957 -11358163.570 -21228475.512 10 0 59299 67500.00000 0 -8254406.472 -13892904.743 -19698515.372 10 0 59299 68400.00000 0 -8355491.232 -16215762.102 -17784671.705 10 0 59299 69300.00000 0 -8616975.588 -18268025.431 -15524126.714 10 0 59299 70200.00000 0 -8996008.476 -20000103.820 -12960869.277 10 0 59299 71100.00000 0 -9442165.214 -21373421.814 -10144835.121 10 0 59299 72000.00000 0 -9899759.928 -22361864.375 -7130925.685 10 0 59299 72900.00000 0 -10310395.360 -22952709.331 -3977925.496 10 0 59299 73800.00000 0 -10615640.308 -23147007.852 -747340.305 10 0 59299 74700.00000 0 -10759719.161 -22959397.240 2497819.624 10 0 59299 75600.00000 0 -10692097.482 -22417354.946 5694285.577 10 0 59299 76500.00000 0 -10369852.068 -21559926.770 8779779.601 10 0 59299 77400.00000 0 -9759723.540 -20435984.918 11694240.651 10 0 59299 78300.00000 0 -8839763.456 -19102091.567 14381002.406 10 0 59299 79200.00000 0 -7600505.752 -17620060.223 16787898.860 10 0 59299 80100.00000 0 -6045613.015 -16054319.518 18868275.756 10 0 59299 81000.00000 0 -4191970.760 -14469191.811 20581888.463 10 0 59299 81900.00000 0 -2069226.341 -12926201.684 21895669.742 10 0 59299 82800.00000 0 281207.359 -11481527.355 22784353.747 10 0 59299 83700.00000 0 2807641.143 -10183701.012 23230945.895 10 0 59299 84600.00000 0 5450029.096 -9071652.911 23227031.328 10 0 59299 85500.00000 0 8142238.485 -8173179.078 22772917.844 10 0 59300 0.00000 0 10814576.004 -7503894.304 21877612.203 10 0 59300 900.00000 0 13396466.446 -7066711.979 20558631.439 10 0 59300 1800.00000 0 15819173.758 -6851869.577 18841654.189 10 0 59300 2700.00000 0 18018453.064 -6837497.941 16760018.666 10 0 59300 3600.00000 0 19937026.043 -6990707.710 14354077.435 10 0 59300 4500.00000 0 21526778.069 -7269147.417 11670420.892 10 0 59300 5400.00000 0 22750587.964 -7622967.090 8760983.812 10 0 59300 6300.00000 0 23583715.755 -7997105.152 5682051.222 10 0 59300 7200.00000 0 24014691.803 -8333803.024 2493181.845 10 0 59300 8100.00000 0 24045671.011 -8575242.323 -743931.220 10 0 59300 9000.00000 0 23692237.779 -8666194.453 -3966641.666 10 0 59300 9900.00000 0 22982669.600 -8556571.544 -7112550.999 10 0 59300 10800.00000 0 21956689.687 -8203771.550 -10120707.121 10 0 59300 11700.00000 0 20663760.071 -7574718.596 -12932777.952 10 0 59300 12600.00000 0 19160985.667 -6647511.977 -15494177.850 10 0 59300 13500.00000 0 17510715.967 -5412613.173 -17755125.376 10 0 59300 14400.00000 0 15777943.708 -3873519.012 -19671612.100 10 0 59300 15300.00000 0 14027608.580 -2046890.450 -21206263.529 10 0 59300 16200.00000 0 12321918.226 37871.179 -22329075.226 10 0 59300 17100.00000 0 10717798.312 2339585.668 -23018009.317 10 0 59300 18000.00000 0 9264578.488 4806755.831 -23259438.959 10 0 59300 18900.00000 0 8002011.469 7379471.438 -23048431.164 10 0 59300 19800.00000 0 6958708.861 9991678.040 -22388861.212 10 0 59300 20700.00000 0 6151060.177 12573717.640 -21293355.044 10 0 59300 21600.00000 0 5582681.318 15055036.300 -19783059.330 10 0 59300 22500.00000 0 5244416.493 17366946.047 -17887242.287 10 0 59300 23400.00000 0 5114894.174 19445325.329 -15642731.880 10 0 59300 24300.00000 0 5161613.867 21233144.360 -13093201.487 10 0 59300 25200.00000 0 5342517.628 22682708.486 -10288316.558 10 0 59300 26100.00000 0 5607979.183 23757524.211 -7282759.036 10 0 59300 27000.00000 0 5903125.170 24433708.494 -4135149.257 10 0 59300 27900.00000 0 6170388.501 24700881.318 -906887.457 10 0 59300 28800.00000 0 6352183.528 24562503.704 2339060.831 10 0 59300 29700.00000 0 6393587.433 24035647.394 5539410.002 10 0 59300 30600.00000 0 6244911.993 23150206.914 8631804.073 10 0 59300 31500.00000 0 5864054.904 21947588.812 11556044.591 10 0 59300 32400.00000 0 5218529.641 20478935.280 14255271.444 10 0 59300 33300.00000 0 4287087.074 18802959.027 16677072.579 10 0 59300 34200.00000 0 3060860.022 16983482.537 18774500.574 10 0 59300 35100.00000 0 1543982.620 15086786.738 20506976.561 10 0 59300 36000.00000 0 -246341.083 13178881.393 21841064.731 10 0 59300 36900.00000 0 -2280321.407 11322812.012 22751103.675 10 0 59300 37800.00000 0 -4516599.211 9576115.533 23219683.995 10 0 59300 38700.00000 0 -6903750.939 7988529.936 23237964.803 10 0 59300 39600.00000 0 -9382219.398 6600051.660 22805824.773 10 0 59300 40500.00000 0 -11886590.047 5439419.573 21931846.561 10 0 59300 41400.00000 0 -14348118.711 4523086.178 20633136.208 10 0 59300 42300.00000 0 -16697406.610 3854716.450 18934982.012 10 0 59300 43200.00000 0 -18867112.991 3425232.832 16870359.937 10 0 59300 44100.00000 0 -20794594.309 3213402.481 14479295.142 10 0 59300 45000.00000 0 -22424361.920 3186940.746 11808091.636 10 0 59300 45900.00000 0 -23710257.802 3304083.690 8908444.234 10 0 59300 46800.00000 0 -24617259.223 3515563.357 5836448.995 10 0 59300 47700.00000 0 -25122838.244 3766902.869 2651530.274 10 0 59300 48600.00000 0 -25217820.309 4000935.399 -584696.001 10 0 59300 49500.00000 0 -24906706.256 4160441.555 -3809601.989 10 0 59300 50400.00000 0 -24207444.116 4190794.719 -6960748.559 10 0 59300 51300.00000 0 -23150659.838 4042503.376 -9977084.559 10 0 59300 52200.00000 0 -21778378.139 3673543.335 -12800122.246 10 0 59300 53100.00000 0 -20142285.933 3051381.310 -15375066.540 10 0 59300 54000.00000 0 -18301609.683 2154603.713 -17651876.642 10 0 59300 54900.00000 0 -16320694.139 974080.646 -19586239.617 10 0 59300 55800.00000 0 -14266382.572 -486385.829 -21140436.965 10 0 59300 56700.00000 0 -12205307.021 -2209958.827 -22284087.166 10 0 59300 57600.00000 0 -10201201.083 -4167216.329 -22994749.282 10 0 59300 58500.00000 0 -8312347.257 -6317137.436 -23258375.086 10 0 59300 59400.00000 0 -6589265.485 -8608586.772 -23069599.984 10 0 59300 60300.00000 0 -5072739.864 -10982237.578 -22431865.803 10 0 59300 61200.00000 0 -3792266.692 -13372855.058 -21357371.705 10 0 59300 62100.00000 0 -2764989.547 -15711846.089 -19866852.726 10 0 59300 63000.00000 0 -1995166.740 -17929969.420 -17989188.858 10 0 59300 63900.00000 0 -1474194.103 -19960092.985 -15760851.126 10 0 59300 64800.00000 0 -1181182.402 -21739882.328 -13225194.566 10 0 59300 65700.00000 0 -1084064.839 -23214306.399 -10431611.429 10 0 59300 66600.00000 0 -1141187.288 -24337854.160 -7434561.271 10 0 59300 67500.00000 0 -1303312.810 -25076367.548 -4292497.424 10 0 59300 68400.00000 0 -1515953.944 -25408412.517 -1066711.938 10 0 59300 69300.00000 0 -1721931.915 -25326129.676 2179876.884 10 0 59300 70200.00000 0 -1864052.025 -24835528.519 5383968.864 10 0 59300 71100.00000 0 -1887779.481 -23956213.325 8483132.116 10 0 59300 72000.00000 0 -1743800.187 -22720553.319 11417032.733 10 0 59300 72900.00000 0 -1390356.287 -21172333.656 14128618.567 10 0 59300 73800.00000 0 -795256.407 -19364945.810 16565233.072 10 0 59300 74700.00000 0 62524.985 -17359195.435 18679637.002 10 0 59300 75600.00000 0 1191726.667 -15220821.419 20430918.321 10 0 59300 76500.00000 0 2588205.048 -13017831.399 21785273.461 10 0 59300 77400.00000 0 4234888.163 -10817765.991 22716645.974 10 0 59300 78300.00000 0 6102280.405 -8685005.950 23207211.900 10 0 59300 79200.00000 0 8149496.116 -6678233.808 23247704.290 10 0 59300 80100.00000 0 10325778.271 -4848154.323 22837572.422 10 0 59300 81000.00000 0 12572438.751 -3235566.548 21984974.369 10 0 59300 81900.00000 0 14825139.635 -1869865.294 20706604.401 10 0 59300 82800.00000 0 17016421.157 -768031.759 19027359.565 10 0 59300 83700.00000 0 19078372.278 65847.266 16979852.422 10 0 59300 84600.00000 0 20945334.129 640513.962 14603779.342 10 0 59300 85500.00000 0 22556525.327 976932.434 11945156.313 10 0 59301 0.00000 0 23858481.447 1107166.909 9055436.360 10 0 59301 900.00000 0 24807208.201 1072793.046 5990524.262 10 0 59301 1800.00000 0 25369960.405 922909.248 2809707.639 10 0 59301 2700.00000 0 25526571.830 711831.492 -425477.420 10 0 59301 3600.00000 0 25270282.458 496568.119 -3652424.345 10 0 59301 4500.00000 0 24608027.143 334180.333 -6808656.228 10 0 59301 5400.00000 0 23560173.502 279139.095 -9833025.691 10 0 59301 6300.00000 0 22159718.920 380789.486 -12666892.013 10 0 59301 7200.00000 0 20450979.164 681029.326 -15255253.171 10 0 59301 8100.00000 0 18487821.754 1212300.403 -17547811.264 10 0 59301 9000.00000 0 16331516.420 1995977.918 -19499950.866 10 0 59301 9900.00000 0 14048290.992 3041227.453 -21073611.254 10 0 59301 10800.00000 0 11706693.401 4344379.626 -22238035.369 10 0 59301 11700.00000 0 9374868.857 5888851.166 -22970380.512 10 0 59301 12600.00000 0 7117865.114 7645618.447 -23256178.110 10 0 59301 13500.00000 0 4995077.930 9574226.429 -23089632.677 10 0 59301 14400.00000 0 3057943.312 11624293.419 -22473752.947 10 0 59301 15300.00000 0 1347973.308 13737450.879 -21420311.234 10 0 59301 16200.00000 0 -104782.032 15849638.845 -19949630.418 10 0 59301 17100.00000 0 -1282781.579 17893661.962 -18090201.273 10 0 59301 18000.00000 0 -2181504.458 19801899.340 -15878136.409 10 0 59301 18900.00000 0 -2809404.010 21509054.334 -13356470.582 10 0 59301 19800.00000 0 -3187306.446 22954827.925 -10574320.490 10 0 59301 20700.00000 0 -3347279.954 24086402.003 -7585920.555 10 0 59301 21600.00000 0 -3331023.140 24860626.612 -4449554.073 10 0 59301 22500.00000 0 -3187842.461 25245817.587 -1226401.639 10 0 59301 23400.00000 0 -2972306.250 25223087.647 2020669.058 10 0 59301 24300.00000 0 -2741677.006 24787154.120 5228346.680 10 0 59301 25200.00000 0 -2553233.150 23946589.132 8334126.790 10 0 59301 26100.00000 0 -2461596.032 22723502.223 11277543.209 10 0 59301 27000.00000 0 -2516177.370 21152669.858 14001354.723 10 0 59301 27900.00000 0 -2758856.682 19280149.924 16452662.993 10 0 59301 28800.00000 0 -3221987.785 17161441.190 18583939.347 10 0 59301 29700.00000 0 -3926818.854 14859266.633 20353940.688 10 0 59301 30600.00000 0 -4882392.394 12441074.850 21728497.466 10 0 59301 31500.00000 0 -6084970.718 9976365.001 22681159.641 10 0 59301 32400.00000 0 -7518010.151 7533947.186 23193689.768 10 0 59301 33300.00000 0 -9152684.092 5179251.955 23256395.517 10 0 59301 34200.00000 0 -10948932.170 2971799.826 22868297.004 10 0 59301 35100.00000 0 -12856991.118 962934.194 22037127.458 10 0 59301 36000.00000 0 -14819343.360 -806090.465 20779168.582 10 0 59301 36900.00000 0 -16773002.300 -2305588.171 19118924.834 10 0 59301 37800.00000 0 -18652039.812 -3518430.021 17088643.465 10 0 59301 38700.00000 0 -20390251.725 -4440503.207 14727689.647 10 0 59301 39600.00000 0 -21923851.461 -5080623.547 12081788.474 10 0 59301 40500.00000 0 -23194080.973 -5459907.042 9202147.803 10 0 59301 41400.00000 0 -24149631.331 -5610628.001 6144477.893 10 0 59301 42300.00000 0 -24748773.082 -5574612.262 2967925.841 10 0 59301 43200.00000 0 -24961108.203 -5401233.168 -266055.803 10 0 59301 44100.00000 0 -24768870.697 -5145094.266 -3494885.415 10 0 59301 45000.00000 0 -24167721.343 -4863495.730 -6656051.876 10 0 59301 45900.00000 0 -23167002.701 -4613790.659 -9688314.981 10 0 59301 46800.00000 0 -21789442.754 -4450742.110 -12532884.223 10 0 59301 47700.00000 0 -20070318.164 -4423991.973 -15134553.552 10 0 59301 48600.00000 0 -18056110.467 -4575748.430 -17442770.531 10 0 59301 49500.00000 0 -15802709.563 -4938789.970 -19412619.392 10 0 59301 50400.00000 0 -13373237.675 -5534871.075 -21005698.824 10 0 59301 51300.00000 0 -10835582.934 -6373598.235 -22190877.290 10 0 59301 52200.00000 0 -8259743.946 -7451825.620 -22944910.768 10 0 59301 53100.00000 0 -5715094.981 -8753598.151 -23252910.138 10 0 59301 54000.00000 0 -3267685.019 -10250646.959 -23108648.221 10 0 59301 54900.00000 0 -977682.839 -11903419.046 -22514699.283 10 0 59301 55800.00000 0 1102925.136 -13662600.256 -21482406.935 10 0 59301 56700.00000 0 2932287.878 -15471069.678 -20031679.623 10 0 59301 57600.00000 0 4480211.546 -17266204.832 -18190616.278 10 0 59301 58500.00000 0 5729185.734 -18982441.574 -15994968.201 10 0 59301 59400.00000 0 6674870.780 -20553981.174 -13487446.766 10 0 59301 60300.00000 0 7326025.575 -21917530.092 -10716889.884 10 0 59301 61200.00000 0 7703879.165 -23014955.935 -7737303.561 10 0 59301 62100.00000 0 7840973.481 -23795746.169 -4606797.781 10 0 59301 63000.00000 0 7779527.464 -24219164.317 -1386438.502 10 0 59301 63900.00000 0 7569393.532 -24256011.112 1860960.229 10 0 59301 64800.00000 0 7265695.142 -23889915.184 5072078.723 10 0 59301 65700.00000 0 6926247.906 -23118098.114 8184342.530 10 0 59301 66600.00000 0 6608875.895 -21951581.575 11137155.435 10 0 59301 67500.00000 0 6368738.962 -20414828.368 13873089.062 10 0 59301 68400.00000 0 6255785.954 -18544833.496 16339004.827 10 0 59301 69300.00000 0 6312442.677 -16389704.916 18487085.814 10 0 59301 70200.00000 0 6571632.789 -14006795.017 20275758.662 10 0 59301 71100.00000 0 7055215.009 -11460462.421 21670488.277 10 0 59301 72000.00000 0 7772901.804 -8819558.784 22644431.103 10 0 59301 72900.00000 0 8721704.014 -6154745.924 23178935.972 10 0 59301 73800.00000 0 9885923.542 -3535754.812 23263884.644 10 0 59301 74700.00000 0 11237693.249 -1028699.700 22897867.305 10 0 59301 75600.00000 0 12738040.509 1306442.596 22088191.372 10 0 59301 76500.00000 0 14338429.390 3418085.668 20850724.856 10 0 59301 77400.00000 0 15982716.860 5264927.586 19209578.353 10 0 59301 78300.00000 0 17609441.657 6817410.092 17196632.414 10 0 59301 79200.00000 0 19154351.044 8058684.922 14850919.475 10 0 59301 80100.00000 0 20553060.942 8985049.422 12217872.055 10 0 59301 81000.00000 0 21743739.592 9605835.383 9348451.056 10 0 59301 81900.00000 0 22669703.893 9942757.372 6298170.060 10 0 59301 82800.00000 0 23281820.963 10028748.785 3126033.483 10 0 59301 83700.00000 0 23540615.242 9906334.925 -106592.024 10 0 59301 84600.00000 0 23417993.576 9625611.476 -3337152.257 10 0 59301 85500.00000 0 22898515.832 9241912.897 -6503104.378 10 0 59302 0.00000 0 21980157.371 8813268.280 -9543117.751 10 0 59302 900.00000 0 20674530.128 8397751.486 -12398254.530 10 0 59302 1800.00000 0 19006552.721 8050835.852 -15013106.740 10 0 59302 2700.00000 0 17013579.799 7822866.030 -17336869.366 10 0 59302 3600.00000 0 14744026.689 7756752.051 -19324328.057 10 0 59302 4500.00000 0 12255543.624 7885984.358 -20936742.496 10 0 59302 5400.00000 0 9612814.128 8233053.939 -22142608.093 10 0 59302 6300.00000 0 6885067.350 8808345.681 -22918280.781 10 0 59302 7200.00000 0 4143406.520 9609553.382 -23248451.999 10 0 59302 8100.00000 0 1458063.667 10621643.219 -23126463.761 10 0 59302 9000.00000 0 -1104305.829 11817369.542 -22554456.470 10 0 59302 9900.00000 0 -3483176.294 13158323.561 -21543345.270 10 0 59302 10800.00000 0 -5626445.916 14596472.867 -20112623.987 10 0 59302 11700.00000 0 -7492375.859 16076128.621 -18289999.056 10 0 59302 12600.00000 0 -9051092.657 17536258.609 -16110859.340 10 0 59302 13500.00000 0 -10285590.539 18913049.116 -13617591.243 10 0 59302 14400.00000 0 -11192191.304 20142607.322 -10858751.880 10 0 59302 15300.00000 0 -11780442.415 21163689.266 -7888116.469 10 0 59302 16200.00000 0 -12072458.172 21920336.846 -4763619.012 10 0 59302 17100.00000 0 -12101732.765 22364310.797 -1546207.941 10 0 59302 18000.00000 0 -11911476.955 22457215.152 1701359.392 10 0 59302 18900.00000 0 -11552550.725 22172221.898 4915758.082 10 0 59302 19800.00000 0 -11081081.780 21495321.867 8034346.824 10 0 59302 20700.00000 0 -10555873.093 20426048.498 10996402.479 10 0 59302 21600.00000 0 -10035711.597 18977643.942 13744312.515 10 0 59302 22500.00000 0 -9576693.832 17176661.101 16224700.952 10 0 59302 23400.00000 0 -9229683.069 15062019.350 18389465.283 10 0 59302 24300.00000 0 -9038006.057 12683554.827 20196704.297 10 0 59302 25200.00000 0 -9035486.673 10100127.280 21611519.491 10 0 59302 26100.00000 0 -9244898.751 7377363.721 22606675.627 10 0 59302 27000.00000 0 -9676902.094 4585133.676 23163109.300 10 0 59302 27900.00000 0 -10329505.047 1794861.238 23270277.472 10 0 59302 28800.00000 0 -11188074.638 -923214.778 22926341.079 10 0 59302 29700.00000 0 -12225892.520 -3502719.995 22138181.949 10 0 59302 30600.00000 0 -13405232.356 -5883653.589 20921254.112 10 0 59302 31500.00000 0 -14678912.898 -8014625.366 19299273.502 10 0 59302 32400.00000 0 -15992261.620 -9854730.553 17303752.622 10 0 59302 33300.00000 0 -17285407.117 -11374987.044 14973389.318 10 0 59302 34200.00000 0 -18495805.080 -12559277.760 12353321.190 10 0 59302 35100.00000 0 -19560893.174 -13404761.174 9494259.426 10 0 59302 36000.00000 0 -20420764.850 -13921734.617 6451517.816 10 0 59302 36900.00000 0 -21020751.167 -14132957.357 3283954.734 10 0 59302 37800.00000 0 -21313803.447 -14072462.553 52847.378 10 0 59302 38700.00000 0 -21262577.433 -13783908.118 -3179281.108 10 0 59302 39600.00000 0 -20841131.569 -13318535.439 -6349859.850 10 0 59302 40500.00000 0 -20036167.984 -12732821.376 -9397471.540 10 0 59302 41400.00000 0 -18847763.067 -12085921.543 -12263034.303 10 0 59302 42300.00000 0 -17289555.724 -11437011.877 -14890941.704 10 0 59302 43200.00000 0 -15388383.631 -10842639.857 -17230139.256 10 0 59302 44100.00000 0 -13183380.429 -10354196.611 -19235116.751 10 0 59302 45000.00000 0 -10724569.344 -10015616.433 -20866797.126 10 0 59302 45900.00000 0 -8071009.547 -9861401.050 -22093304.447 10 0 59302 46800.00000 0 -5288570.306 -9915052.759 -22890595.684 10 0 59302 47700.00000 0 -2447423.765 -10187983.707 -23242943.281 10 0 59302 48600.00000 0 380640.818 -10678948.932 -23143258.255 10 0 59302 49500.00000 0 3124970.745 -11374028.952 -22593246.360 10 0 59302 50400.00000 0 5718757.279 -12247164.615 -21603392.965 10 0 59302 51300.00000 0 8101584.189 -13261223.593 -20192775.498 10 0 59302 52200.00000 0 10221710.905 -14369555.183 -18388705.706 10 0 59302 53100.00000 0 12037994.342 -15517968.991 -16226207.453 10 0 59302 54000.00000 0 13521368.434 -16647054.595 -13747339.275 10 0 59302 54900.00000 0 14655818.883 -17694744.152 -11000374.295 10 0 59302 55800.00000 0 15438811.826 -18599008.974 -8038853.494 10 0 59302 56700.00000 0 15881158.635 -19300574.773 -4920531.265 10 0 59302 57600.00000 0 16006323.186 -19745539.134 -1706234.789 10 0 59302 58500.00000 0 15849202.052 -19887778.614 1541338.983 10 0 59302 59400.00000 0 15454430.918 -19691041.923 4758863.503 10 0 59302 60300.00000 0 14874291.001 -19130639.155 7883633.922 10 0 59302 61200.00000 0 14166306.377 -18194654.664 10854803.147 10 0 59302 62100.00000 0 13390636.237 -16884631.941 13614577.015 10 0 59302 63000.00000 0 12607374.487 -15215701.634 16109344.192 10 0 59302 63900.00000 0 11873872.448 -13216148.001 18290718.099 10 0 59302 64800.00000 0 11242198.752 -10926432.890 20116470.683 10 0 59302 65700.00000 0 10756843.864 -8397719.251 21551340.542 10 0 59302 66600.00000 0 10452765.554 -5689956.985 22567700.802 10 0 59302 67500.00000 0 10353856.485 -2869611.770 23146075.450 10 0 59302 68400.00000 0 10471896.863 -7131.747 23275495.912 10 0 59302 69300.00000 0 10806034.315 2825742.798 22953692.834 10 0 59302 70200.00000 0 11342811.070 5558715.888 22187121.161 10 0 59302 71100.00000 0 12056735.686 8125606.408 20990819.464 10 0 59302 72000.00000 0 12911374.183 10466843.827 19388107.368 10 0 59302 72900.00000 0 13860914.106 12531687.897 17410127.576 10 0 59302 73800.00000 0 14852135.849 14280082.688 15095241.462 10 0 59302 74700.00000 0 15826708.890 15684070.275 12488289.731 10 0 59302 75600.00000 0 16723717.442 16728707.561 9639731.758 10 0 59302 76500.00000 0 17482310.550 17412449.947 6604679.328 10 0 59302 77400.00000 0 18044366.492 17746987.161 3441842.453 10 0 59302 78300.00000 0 18357060.685 17756539.142 212406.470 10 0 59302 79200.00000 0 18375229.958 17476641.821 -3021138.971 10 0 59302 80100.00000 0 18063434.291 16952473.627 -6196197.369 10 0 59302 81000.00000 0 17397629.140 16236792.486 -9251266.993 10 0 59302 81900.00000 0 16366377.455 15387569.368 -12127124.191 10 0 59302 82800.00000 0 14971549.437 14465417.107 -14767965.958 10 0 59302 83700.00000 0 13228478.792 13530921.837 -17122490.045 10 0 59302 84600.00000 0 11165566.759 12641988.697 -19144891.904 10 0 59302 85500.00000 0 8823348.095 11851313.149 -20795759.062 99